GW4712 Weather Reports


Display with metric or nautical units.
time (UTC)temp
F
wind
direction
speed
MPH
gust
MPH
rain 1hr
in
rain 24hr
in
rain mn
in
humidity
%
barometer
mb
20260504044438 47 299 0.0 0.0 0.00 0.00 0.00 84 1015.3
20260504043935 47 299 0.0 0.0 0.00 0.00 0.00 85 1015.5
20260504043431 47 299 0.0 0.0 0.00 0.00 0.00 85 1015.4
20260504042929 46 299 0.0 0.0 0.00 0.00 0.00 85 1015.7
20260504042426 47 299 0.0 0.0 0.00 0.00 0.00 86 1015.7
20260504041922 47 299 0.0 0.0 0.00 0.00 0.00 85 1015.7
20260504041418 47 299 0.0 0.0 0.00 0.00 0.00 85 1015.6
20260504040914 47 299 0.0 0.0 0.00 0.00 0.00 85 1015.6
20260504040412 47 299 0.0 0.0 0.00 0.00 0.00 83 1015.5
20260504035907 48 299 0.0 0.0 0.00 0.00 0.00 82 1015.5
20260504035405 48 299 0.0 0.0 0.00 0.00 0.00 80 1015.6
20260504034901 48 299 0.0 0.0 0.00 0.00 0.00 79 1015.6
20260504034359 48 299 0.0 1.0 0.00 0.00 0.00 81 1015.6
20260504033855 48 299 0.0 0.0 0.00 0.00 0.00 83 1015.7
20260504033354 48 244 0.0 1.0 0.00 0.00 0.00 76 1015.8
20260504032850 48 245 0.0 0.0 0.00 0.00 0.00 78 1015.6
20260504032347 48 245 0.0 0.0 0.00 0.00 0.00 79 1015.5
20260504031844 48 245 0.0 0.0 0.00 0.00 0.00 78 1015.5
20260504031341 48 245 0.0 0.0 0.00 0.00 0.00 76 1015.8
20260504030837 48 245 0.0 0.0 0.00 0.00 0.00 76 1015.5
20260504030335 48 245 0.0 0.0 0.00 0.00 0.00 77 1015.6
20260504025831 48 245 0.0 0.0 0.00 0.00 0.00 80 1015.6
20260504025328 49 245 0.0 0.0 0.00 0.00 0.00 79 1015.8
20260504024825 49 245 0.0 0.0 0.00 0.00 0.00 78 1015.7
20260504024321 49 245 0.0 0.0 0.00 0.00 0.00 75 1015.8
20260504023818 49 245 0.0 0.0 0.00 0.00 0.00 76 1015.8
20260504023315 49 245 0.0 0.0 0.00 0.00 0.00 76 1015.6
20260504022810 49 245 0.0 0.0 0.00 0.00 0.00 78 1015.7
20260504022307 49 245 0.0 0.0 0.00 0.00 0.00 80 1015.5
20260504021803 49 245 0.0 0.0 0.00 0.00 0.00 80 1015.6
20260504021301 49 245 0.0 1.0 0.00 0.00 0.00 81 1015.7
20260504020758 49 244 0.0 0.0 0.00 0.00 0.00 76 1015.5
20260504020255 49 244 0.0 0.0 0.00 0.00 0.00 75 1015.6
20260504015750 49 244 0.0 0.0 0.00 0.00 0.00 76 1015.5
20260504015247 49 244 0.0 0.0 0.00 0.00 0.00 75 1015.6
20260504014743 49 244 0.0 0.0 0.00 0.00 0.00 75 1015.6
20260504014240 49 244 0.0 0.0 0.00 0.00 0.00 78 1015.7
20260504013737 50 244 0.0 0.0 0.00 0.00 0.00 79 1015.7
20260504013235 50 244 0.0 0.0 0.00 0.00 0.00 75 1015.5
20260504012731 50 244 0.0 0.0 0.00 0.00 0.00 73 1015.5
20260504012229 51 244 0.0 0.0 0.00 0.00 0.00 71 1015.6
20260504011726 51 244 0.0 0.0 0.00 0.00 0.00 67 1015.6
20260504011223 51 244 0.0 0.0 0.00 0.00 0.00 66 1015.6
20260504010719 51 244 0.0 0.0 0.00 0.00 0.00 66 1015.4
20260504010215 52 244 0.0 0.0 0.00 0.00 0.00 70 1015.6
20260504005711 52 244 0.0 0.0 0.00 0.00 0.00 65 1015.6
20260504005209 52 244 0.0 0.0 0.00 0.00 0.00 64 1015.7
20260504004706 52 244 0.0 0.0 0.00 0.00 0.00 64 1015.6
20260504004203 52 244 0.0 0.0 0.00 0.00 0.00 66 1015.7
20260504003700 52 244 0.0 0.0 0.00 0.00 0.00 65 1015.5
20260504003156 53 244 0.0 1.0 0.00 0.00 0.00 62 1015.4
20260504002653 53 244 1.0 1.0 0.00 0.00 0.00 60 1015.4
20260504002150 53 244 0.0 1.0 0.00 0.00 0.00 59 1015.5
20260504001648 54 244 1.0 2.0 0.00 0.00 0.00 56 1015.3
20260504001144 56 261 0.0 1.0 0.00 0.00 0.00 52 1015.3
20260504000641 57 261 1.0 2.0 0.00 0.00 0.00 41 1015.4
20260504000139 57 250 2.0 2.0 0.00 0.00 0.00 37 1015.4
20260503235637 57 279 2.0 3.0 0.00 0.00 0.00 37 1015.2
20260503235133 58 260 1.0 3.0 0.00 0.00 0.00 37 1015.3
20260503234631 58 246 2.0 4.0 0.00 0.00 0.00 36 1015.5
20260503234129 58 272 2.0 3.0 0.00 0.00 0.00 35 1015.5
20260503233626 58 250 1.0 3.0 0.00 0.00 0.00 38 1015.5
20260503233121 58 257 1.0 2.0 0.00 0.00 0.00 37 1015.6
20260503232619 58 251 1.0 3.0 0.00 0.00 0.00 37 1015.5
20260503232116 58 244 1.0 2.0 0.00 0.00 0.00 36 1015.5
20260503231614 58 263 2.0 4.0 0.00 0.00 0.00 37 1015.7
20260503231111 59 263 4.0 7.0 0.00 0.00 0.00 35 1015.6
20260503230608 59 231 4.0 13.0 0.00 0.00 0.00 36 1015.8
20260503230105 59 291 2.0 3.0 0.00 0.00 0.00 34 1015.7
20260503225603 60 298 2.0 7.0 0.00 0.00 0.00 33 1015.8
20260503225057 60 295 3.0 7.0 0.00 0.00 0.00 38 1015.7
20260503224555 60 223 4.0 6.0 0.00 0.00 0.00 33 1015.8
20260503224053 61 244 9.0 10.0 0.00 0.00 0.00 33 1015.9
20260503223550 62 313 6.0 7.0 0.00 0.00 0.00 33 1015.8
20260503223045 61 225 2.0 7.0 0.00 0.00 0.00 34 1015.7
20260503222544 61 309 5.0 7.0 0.00 0.00 0.00 37 1015.8
20260503222041 61 312 6.0 13.0 0.00 0.00 0.00 32 1015.9
20260503221539 61 302 6.0 9.0 0.00 0.00 0.00 34 1016.0
20260503221037 62 198 3.0 9.0 0.00 0.00 0.00 34 1015.8
20260503220533 61 167 1.0 4.0 0.00 0.00 0.00 32 1015.8
20260503220030 62 267 5.0 11.0 0.00 0.00 0.00 37 1015.9
20260503215527 62 312 4.0 8.0 0.00 0.00 0.00 35 1015.9
20260503215024 61 313 5.0 7.0 0.00 0.00 0.00 34 1015.9
20260503214522 61 317 3.0 6.0 0.00 0.00 0.00 37 1015.8
20260503214018 61 181 5.0 7.0 0.00 0.00 0.00 30 1015.9
20260503213517 61 223 3.0 7.0 0.00 0.00 0.00 33 1015.7
20260503213013 61 330 2.0 11.0 0.00 0.00 0.00 32 1015.8
20260503212511 61 170 5.0 7.0 0.00 0.00 0.00 33 1015.6
20260503212008 61 270 2.0 6.0 0.00 0.00 0.00 31 1015.8
20260503211505 61 313 6.0 14.0 0.00 0.00 0.00 34 1015.8
20260503211000 61 266 2.0 4.0 0.00 0.00 0.00 32 1015.8
20260503210457 60 310 8.0 9.0 0.00 0.00 0.00 36 1015.8
20260503205951 61 288 1.0 3.0 0.00 0.00 0.00 34 1016.0
20260503205449 60 307 1.0 8.0 0.00 0.00 0.00 38 1015.9
20260503204945 61 310 6.0 15.0 0.00 0.00 0.00 33 1015.8
20260503204443 61 314 5.0 7.0 0.00 0.00 0.00 37 1015.9
20260503203939 60 313 4.0 10.0 0.00 0.00 0.00 38 1016.0
20260503203437 60 309 3.0 4.0 0.00 0.00 0.00 36 1016.2
20260503202933 60 250 6.0 10.0 0.00 0.00 0.00 34 1016.1
20260503202432 61 319 1.0 6.0 0.00 0.00 0.00 33 1016.4
20260503201930 60 312 5.0 11.0 0.00 0.00 0.00 34 1016.5
20260503201426 60 324 4.0 9.0 0.00 0.00 0.00 34 1016.5
20260503200924 61 298 6.0 7.0 0.00 0.00 0.00 35 1016.6
20260503200420 62 323 1.0 3.0 0.00 0.00 0.00 40 1016.7
20260503195917 60 307 2.0 8.0 0.00 0.00 0.00 34 1016.9
20260503195415 60 255 4.0 11.0 0.00 0.00 0.00 35 1016.9
20260503194911 60 251 2.0 8.0 0.00 0.00 0.00 35 1016.9
20260503194408 61 313 9.0 10.0 0.00 0.00 0.00 38 1017.0
20260503193904 59 270 5.0 7.0 0.00 0.00 0.00 37 1017.2
20260503193359 60 313 3.0 7.0 0.00 0.00 0.00 33 1017.4
20260503192855 60 312 8.0 11.0 0.00 0.00 0.00 33 1017.4
20260503192351 60 312 6.0 9.0 0.00 0.00 0.00 34 1017.6
20260503191847 60 307 2.0 2.0 0.00 0.00 0.00 34 1017.5
20260503191345 59 261 3.0 8.0 0.00 0.00 0.00 31 1017.7
20260503190841 59 264 9.0 13.0 0.00 0.00 0.00 33 1017.9
20260503190338 61 313 5.0 9.0 0.00 0.00 0.00 38 1018.0
20260503185835 61 62 2.0 8.0 0.00 0.00 0.00 38 1018.0
20260503185331 60 316 3.0 7.0 0.00 0.00 0.00 37 1017.9
20260503184831 59 140 0.0 2.0 0.00 0.00 0.00 38 1017.9
20260503184327 59 243 3.0 14.0 0.00 0.00 0.00 33 1018.1
20260503183823 58 191 1.0 3.0 0.00 0.00 0.00 37 1018.1
20260503183321 58 33 1.0 6.0 0.00 0.00 0.00 33 1018.3
20260503182818 56 255 4.0 7.0 0.00 0.00 0.00 35 1018.2
20260503182317 56 275 3.0 10.0 0.00 0.00 0.00 37 1018.1
20260503181814 57 255 5.0 9.0 0.00 0.00 0.00 35 1018.3
20260503181311 56 225 2.0 3.0 0.00 0.00 0.00 37 1018.2
20260503180807 56 257 4.0 8.0 0.00 0.00 0.00 36 1018.3
20260503180305 58 223 3.0 6.0 0.00 0.00 0.00 34 1018.5
20260503175801 58 73 3.0 4.0 0.00 0.00 0.00 36 1018.6
20260503175300 57 325 2.0 4.0 0.00 0.00 0.00 39 1018.6
20260503174755 56 231 7.0 8.0 0.00 0.00 0.00 37 1018.9
20260503174253 58 319 10.0 11.0 0.00 0.00 0.00 44 1018.7
20260503173748 57 93 1.0 2.0 0.00 0.00 0.00 39 1018.8
20260503173244 57 106 1.0 3.0 0.00 0.00 0.00 35 1018.7
20260503172741 58 332 2.0 7.0 0.00 0.00 0.00 37 1018.9
20260503172238 56 314 4.0 14.0 0.00 0.00 0.00 40 1019.2
20260503171735 55 56 1.0 4.0 0.00 0.00 0.00 39 1019.1
20260503171232 55 75 2.0 4.0 0.00 0.00 0.00 41 1019.1
20260503170729 55 250 0.0 6.0 0.00 0.00 0.00 38 1019.2
20260503170226 56 313 4.0 11.0 0.00 0.00 0.00 46 1019.3
20260503160147 54 320 4.0 9.0 0.00 0.00 0.00 43 1020.3
20260503150618 51 217 3.0 14.0 0.00 0.00 0.00 47 1020.4
20260503150114 50 288 8.0 10.0 0.00 0.00 0.00 46 1020.4
20260503131008 44 355 0.0 0.0 0.00 0.00 0.00 75 1020.5
20260503130505 44 356 0.0 0.0 0.00 0.00 0.00 78 1020.4
20260503110401 28 294 0.0 0.0 0.00 0.00 0.00 98 1019.5
20260503090252 28 294 0.0 0.0 0.00 0.00 0.00 98 1018.8
20260503081219 29 294 0.0 0.0 0.00 0.00 0.00 98 1018.5
20260503080715 29 294 0.0 0.0 0.00 0.00 0.00 98 1018.4
20260503080212 29 294 0.0 0.0 0.00 0.00 0.00 98 1018.6
20260503072649 29 294 0.0 0.0 0.00 0.00 0.00 97 1018.4
20260503072145 29 294 0.0 0.0 0.00 0.00 0.00 97 1018.2
20260503071642 29 294 0.0 0.0 0.00 0.00 0.00 97 1018.3
20260503071139 29 294 0.0 0.0 0.00 0.00 0.00 97 1018.1
20260503070636 29 294 0.0 0.0 0.00 0.00 0.00 97 1018.0
20260503070134 30 294 0.0 0.0 0.00 0.00 0.00 97 1018.0
20260503055050 31 294 0.0 0.0 0.00 0.00 0.00 97 1018.2
20260503054545 31 294 0.0 0.0 0.00 0.00 0.00 97 1018.3
20260503054043 31 294 0.0 0.0 0.00 0.00 0.00 97 1018.3
20260503053541 31 294 0.0 0.0 0.00 0.00 0.00 97 1018.3
20260503053039 31 294 0.0 0.0 0.00 0.00 0.00 96 1018.2
20260503052535 31 294 0.0 0.0 0.00 0.00 0.00 96 1018.1
20260503052031 31 294 0.0 0.0 0.00 0.00 0.00 96 1018.3
20260503051527 32 294 0.0 0.0 0.00 0.00 0.00 96 1018.1
20260503051025 31 294 0.0 0.0 0.00 0.00 0.00 96 1018.1
20260503050520 32 294 0.0 0.0 0.00 0.00 0.00 96 1018.1
20260503050018 32 294 0.0 0.0 0.00 0.00 0.00 96 1018.2
20260503045515 32 294 0.0 0.0 0.00 0.00 0.00 96 1018.1
20260503045012 32 294 0.0 0.0 0.00 0.00 0.00 96 1018.1